Regional Weather Roundup
Issued by NWS Binghamton, NY

Home | Current Version | Previous Version | Text Only | Print | Product List | Glossary On
Versions: 1 2 3 4 5 6 7 8 9 10 11 12 13 14 15 16 17 18 19 20 21 22 23 24 25 26 27 28 29 30 31 32 33 34 35 36 37 38 39 40 41 42 43 44 45 46 47 48 49 50
000
ASUS41 KBGM 020310
RWRBGM
RWRBGM
BINGHAMTON REGIONAL WEATHER ROUNDUP
NATIONAL WEATHER SERVICE BINGHAMTON NY
1100 PM EDT SAT AUG 01 2015

Note: "fair" indicates few or no clouds below 12,000 feet with no
significant weather and/or obstructions to visibility.

* = Station(s) that does not report precipitation, such as rain,
snow, etc, also no thunder or fog.

!NYZ009-015>018-022>025-036-037-044>046-055>057-062-020400
...CENTRAL NEW YORK...

CITY           SKY/WX    TMP DP  RH WIND       PRES   REMARKS
BINGHAMTON     CLEAR     67  52  58 CALM      29.92R
CORTLAND       FAIR      59  57  94 CALM      29.92S
DANSVILLE      PTCLDY    65  57  75 SE5       29.91R
ELMIRA         PTCLDY    60  55  83 W3        29.89S
ITHACA         CLEAR     58  56  93 E3        29.91S
HORNELL          N/A     61  55  82 S3        29.95S
MONTICELLO     CLEAR     63  55  77 CALM      29.93R
NORWICH        CLEAR     57  54  88 CALM      29.92R
ONEONTA        CLEAR     63  48  59 CALM      29.92S
PENN YAN       CLEAR     63  56  78 S6        29.89S
ROME           PTCLDY    60  55  83 NE5       29.88R
SIDNEY         CLEAR     61  61 100 CALM      29.91S
SYRACUSE       PTCLDY    64  59  83 E3        29.86R
$$

!PAZ038>040-043-044-047-048-072-020400
...NORTHEAST PENNSYLVANIA...

CITY           SKY/WX    TMP DP  RH WIND       PRES   REMARKS
HAZLETON       CLEAR     63  55  77 CALM      29.96S
SCRANTON       CLEAR     63  58  83 SE5       29.90S
TOWANDA*       CLEAR     64  59  82 MISG      29.91S
$$
&&
KEY
WCI = WIND CHILL INDEX
VSB = VISIBILITY
HX  = HEAT INDEX
$$



USA.gov is the U.S. government's official web portal to all federal, state and local government web resources and services.